Satellite: TechEdSat
Catalog number: 38854
Epoch time:      12341.23195451
Element set:      71
Inclination:      051.6477 deg
RA of node:       345.1927 deg
Eccentricity:    0.0016464
Arg of perigee:   022.3752 deg
Mean anomaly:     337.7953 deg
Mean motion:   15.58567952 rev/day
Decay rate:     4.4329e-04 rev/day^2
Epoch rev:             972
Checksum:              317

Satellite: F 1
Catalog number: 38855
Epoch time:      12341.23652595
Element set:      74
Inclination:      051.6498 deg
RA of node:       345.2212 deg
Eccentricity:    0.0016180
Arg of perigee:   021.2825 deg
Mean anomaly:     338.8811 deg
Mean motion:   15.58363567 rev/day
Decay rate:     4.2518e-04 rev/day^2
Epoch rev:             961
Checksum:              301

Satellite: WeWish
Catalog number: 38856
Epoch time:      12341.23296729
Element set:      82
Inclination:      051.6460 deg
RA of node:       344.4452 deg
Eccentricity:    0.0019401
Arg of perigee:   017.7350 deg
Mean anomaly:     342.4311 deg
Mean motion:   15.62230922 rev/day
Decay rate:     7.5333e-04 rev/day^2
Epoch rev:             962
Checksum:              272

/EX




More information about the Keps mailing list